TimeEDT,TemperatureF,Dew PointF,Humidity,Sea Level PressureIn,VisibilityMPH,Wind Direction,Wind SpeedMPH,Gust SpeedMPH,PrecipitationIn,Events,Conditions,WindDirDegrees,DateUTC
12:15 AM,41.0,39.2,93,30.09,10.0,Calm,Calm,-,N/A,,Clear,0,2012-04-07 04:15:00
12:35 AM,41.0,39.2,93,30.10,10.0,Calm,Calm,-,N/A,,Clear,0,2012-04-07 04:35:00
12:55 AM,41.0,37.4,87,30.11,10.0,Calm,Calm,-,N/A,,Clear,0,2012-04-07 04:55:00
1:15 AM,41.0,37.4,87,30.11,10.0,Calm,Calm,-,N/A,,Clear,0,2012-04-07 05:15:00
1:35 AM,41.0,37.4,87,30.11,10.0,Calm,Calm,-,N/A,,Clear,0,2012-04-07 05:35:00
1:55 AM,41.0,37.4,87,30.11,10.0,Calm,Calm,-,N/A,,Clear,0,2012-04-07 05:55:00
2:15 AM,41.0,37.4,87,30.11,10.0,Calm,Calm,-,N/A,,Clear,0,2012-04-07 06:15:00
2:35 AM,41.0,37.4,87,30.11,10.0,Calm,Calm,-,N/A,,Clear,0,2012-04-07 06:35:00
2:55 AM,37.4,35.6,93,30.11,10.0,Calm,Calm,-,N/A,,Clear,0,2012-04-07 06:55:00
3:15 AM,41.0,37.4,87,30.10,10.0,Calm,Calm,-,N/A,,Clear,0,2012-04-07 07:15:00
3:35 AM,39.2,37.4,93,30.11,10.0,Calm,Calm,-,N/A,,Clear,0,2012-04-07 07:35:00
3:55 AM,41.0,37.4,87,30.11,10.0,Calm,Calm,-,N/A,,Clear,0,2012-04-07 07:55:00
4:15 AM,37.4,35.6,93,30.12,10.0,Calm,Calm,-,N/A,,Clear,0,2012-04-07 08:15:00
4:35 AM,39.2,37.4,93,30.13,10.0,Calm,Calm,-,N/A,,Clear,0,2012-04-07 08:35:00
4:55 AM,37.4,35.6,93,30.14,10.0,Calm,Calm,-,N/A,,Clear,0,2012-04-07 08:55:00
5:15 AM,37.4,35.6,93,30.14,10.0,Calm,Calm,-,N/A,,Clear,0,2012-04-07 09:15:00
5:35 AM,37.4,35.6,93,30.15,10.0,Calm,Calm,-,N/A,,Clear,0,2012-04-07 09:35:00
5:55 AM,39.2,35.6,87,30.15,10.0,Calm,Calm,-,N/A,,Clear,0,2012-04-07 09:55:00
6:15 AM,39.2,35.6,87,30.17,10.0,Calm,Calm,-,N/A,,Clear,0,2012-04-07 10:15:00
6:35 AM,41.0,37.4,87,30.17,10.0,NW,3.5,-,N/A,,Clear,310,2012-04-07 10:35:00
6:55 AM,37.4,35.6,93,30.18,10.0,Calm,Calm,-,N/A,,Clear,0,2012-04-07 10:55:00
7:15 AM,39.2,35.6,87,30.19,10.0,Calm,Calm,-,N/A,,Clear,0,2012-04-07 11:15:00
7:35 AM,37.4,35.6,93,30.20,10.0,Calm,Calm,-,N/A,,Clear,0,2012-04-07 11:35:00
7:55 AM,42.8,37.4,81,30.21,10.0,NW,3.5,-,N/A,,Clear,310,2012-04-07 11:55:00
8:15 AM,44.6,39.2,81,30.22,10.0,Calm,Calm,-,N/A,,Clear,0,2012-04-07 12:15:00
8:35 AM,46.4,41.0,81,30.23,10.0,Calm,Calm,-,N/A,,Clear,0,2012-04-07 12:35:00
8:55 AM,48.2,41.0,76,30.23,10.0,Calm,Calm,-,N/A,,Clear,0,2012-04-07 12:55:00
9:15 AM,51.8,41.0,67,30.23,10.0,North,4.6,-,N/A,,Clear,360,2012-04-07 13:15:00
9:35 AM,53.6,39.2,58,30.24,10.0,NNW,3.5,-,N/A,,Clear,340,2012-04-07 13:35:00
9:55 AM,55.4,35.6,47,30.24,10.0,North,5.8,-,N/A,,Clear,350,2012-04-07 13:55:00
10:15 AM,59.0,32.0,36,30.25,10.0,NNW,6.9,-,N/A,,Clear,340,2012-04-07 14:15:00
10:35 AM,60.8,30.2,31,30.25,10.0,North,8.1,-,N/A,,Clear,360,2012-04-07 14:35:00
10:55 AM,62.6,28.4,27,30.25,10.0,North,8.1,-,N/A,,Clear,350,2012-04-07 14:55:00
11:15 AM,62.6,28.4,27,30.26,10.0,NE,11.5,-,N/A,,Clear,40,2012-04-07 15:15:00
11:35 AM,62.6,28.4,27,30.26,10.0,North,12.7,16.1,N/A,,Clear,10,2012-04-07 15:35:00
11:55 AM,62.6,30.2,30,30.27,10.0,North,10.4,-,N/A,,Clear,360,2012-04-07 15:55:00
12:15 PM,62.6,30.2,30,30.27,10.0,NNW,9.2,17.3,N/A,,Clear,330,2012-04-07 16:15:00
12:35 PM,62.6,28.4,27,30.27,10.0,NNW,10.4,-,N/A,,Clear,330,2012-04-07 16:35:00
12:55 PM,64.4,28.4,26,30.26,10.0,NNW,10.4,-,N/A,,Clear,330,2012-04-07 16:55:00
1:15 PM,64.4,30.2,28,30.25,10.0,North,9.2,-,N/A,,Clear,360,2012-04-07 17:15:00
1:35 PM,64.4,28.4,26,30.25,10.0,North,8.1,-,N/A,,Clear,10,2012-04-07 17:35:00
1:55 PM,66.2,28.4,24,30.24,10.0,NNE,5.8,-,N/A,,Clear,20,2012-04-07 17:55:00
2:15 PM,66.2,28.4,24,30.23,10.0,NNW,11.5,19.6,N/A,,Clear,340,2012-04-07 18:15:00
2:35 PM,68.0,26.6,21,30.23,10.0,NW,6.9,-,N/A,,Clear,320,2012-04-07 18:35:00
2:55 PM,68.0,28.4,23,30.22,10.0,NW,8.1,-,N/A,,Clear,320,2012-04-07 18:55:00
3:15 PM,68.0,26.6,21,30.21,10.0,NW,5.8,-,N/A,,Clear,310,2012-04-07 19:15:00
3:35 PM,69.8,28.4,21,30.20,10.0,WNW,3.5,-,N/A,,Clear,300,2012-04-07 19:35:00
3:55 PM,69.8,28.4,21,30.19,10.0,Calm,Calm,-,N/A,,Clear,0,2012-04-07 19:55:00
4:15 PM,68.0,26.6,21,30.19,10.0,WNW,8.1,-,N/A,,Clear,290,2012-04-07 20:15:00
4:35 PM,68.0,28.4,23,30.18,10.0,NW,6.9,-,N/A,,Clear,310,2012-04-07 20:35:00
4:55 PM,69.8,28.4,21,30.18,10.0,NNW,8.1,-,N/A,,Clear,340,2012-04-07 20:55:00
5:15 PM,68.0,26.6,21,30.18,10.0,Calm,Calm,-,N/A,,Clear,0,2012-04-07 21:15:00
5:35 PM,68.0,26.6,21,30.18,10.0,NW,4.6,-,N/A,,Clear,320,2012-04-07 21:35:00
5:55 PM,66.2,33.8,30,30.17,10.0,SE,5.8,-,N/A,,Clear,140,2012-04-07 21:55:00
6:15 PM,68.0,33.8,28,30.17,10.0,ESE,6.9,-,N/A,,Clear,110,2012-04-07 22:15:00
6:35 PM,64.4,33.8,32,30.18,10.0,South,6.9,-,N/A,,Clear,170,2012-04-07 22:35:00
6:55 PM,62.6,33.8,34,30.18,10.0,South,5.8,-,N/A,,Clear,190,2012-04-07 22:55:00
7:15 PM,60.8,35.6,39,30.19,10.0,SSW,4.6,-,N/A,,Clear,200,2012-04-07 23:15:00
7:35 PM,60.8,37.4,42,30.18,10.0,Calm,Calm,-,N/A,,Clear,0,2012-04-07 23:35:00
7:55 PM,55.4,41.0,58,30.19,10.0,SW,4.6,-,N/A,,Clear,220,2012-04-07 23:55:00
8:15 PM,53.6,41.0,62,30.19,10.0,SSW,3.5,-,N/A,,Clear,210,2012-04-08 00:15:00
8:35 PM,53.6,41.0,62,30.20,10.0,SSW,5.8,-,N/A,,Clear,210,2012-04-08 00:35:00
8:55 PM,53.6,41.0,62,30.20,10.0,South,3.5,-,N/A,,Clear,190,2012-04-08 00:55:00
9:15 PM,51.8,41.0,67,30.21,10.0,SW,3.5,-,N/A,,Clear,220,2012-04-08 01:15:00
9:35 PM,51.8,41.0,67,30.23,10.0,Calm,Calm,-,N/A,,Clear,0,2012-04-08 01:35:00
9:55 PM,51.8,41.0,67,30.22,10.0,Calm,Calm,-,N/A,,Clear,0,2012-04-08 01:55:00
10:15 PM,50.0,41.0,71,30.22,10.0,Calm,Calm,-,N/A,,Clear,0,2012-04-08 02:15:00
10:35 PM,50.0,41.0,71,30.21,10.0,SW,3.5,-,N/A,,Clear,220,2012-04-08 02:35:00
10:55 PM,46.4,41.0,81,30.22,10.0,SW,4.6,-,N/A,,Clear,220,2012-04-08 02:55:00
11:15 PM,46.4,41.0,81,30.21,10.0,SW,4.6,-,N/A,,Clear,230,2012-04-08 03:15:00
11:35 PM,46.4,39.2,76,30.22,10.0,SW,5.8,-,N/A,,Clear,220,2012-04-08 03:35:00
11:55 PM,46.4,39.2,76,30.22,10.0,SW,3.5,-,N/A,,Clear,220,2012-04-08 03:55:00